Location: Breitenfeld
(46.8500°N, 15.6333°E)
Time: 10:45:23
(UTC+00:00)

Cosmos 1408 - Pass Details

Date: 09 April 2020
Orbit: 471 x 494 km, 82.6° (Epoch: 25 May)

Event Time Altitude Azimuth Distance (km) Brightness Sun altitude
Rises 19:07:41 0° 6° (N) 2,564 6.6 -15.1°
Reaches altitude 10° 19:10:25 10° 29° (NNE) 1,683 5.3 -15.5°
Enters shadow 19:12:34 16° 64° (ENE) 1,339 4.5 -15.8°
